Location: Newark
(52.3500°N, 175.9667°E)
Time: 21:04:02
(UTC+00:00)

Transit 4A - Pass Details

Date: 22 April 2021
Orbit: 871 x 974 km, 66.8° (Epoch: 16 May)

Event Time Altitude Azimuth Distance (km) Brightness Sun altitude
Rises 09:45:52 0° 160° (SSE) 3,621 - -17.8°
Reaches altitude 10° 09:49:25 10° 140° (SE) 2,663 - -18.2°
Maximum altitude 09:53:03 16° 104° (ESE) 2,221 - -18.5°
Exits shadow 09:53:56 16° 94° (E) 2,246 9.5 -18.6°
Drops below altitude 10° 09:56:39 10° 68° (ENE) 2,632 10.1 -18.8°
Sets 10:00:06 0° 48° (NE) 3,558 11.0 -19.1°
